Theta_e
334 337 337 338 338 336 335 346 345 343 342 342 343 344 345 344 336 334 337 338 340 336 333 332 331 331 329 329 328 327 327 326 325 325 324 324 323 323 324 324 325 325 326
336 337 336 336 336 340 346 345 342 341 340 342 343 345 344 339 336 334 334 335 337 336 332 330 329 328 328 328 327 327 327 326 327 326 326 325 323 322 323 323 324 324 324
336 337 334 334 340 345 342 340 340 341 338 338 340 341 341 337 335 331 329 331 331 334 330 328 327 327 327 326 326 326 326 326 326 328 327 326 322 322 323 324 325 324 325
339 337 337 342 345 342 341 340 339 335 331 333 332 328 325 326 326 326 323 324 324 325 327 326 325 325 325 326 326 327 327 326 327 326 324 324 321 322 322 324 323 324 324
340 341 344 343 341 340 340 339 334 331 326 325 321 320 319 318 320 321 321 322 321 321 321 323 323 323 324 324 326 327 327 325 324 323 322 321 321 322 323 322 323 323 324
345 345 342 341 341 337 336 325 322 322 323 320 316 315 315 316 316 317 319 319 319 319 319 318 318 317 322 323 324 326 327 324 323 322 321 321 322 323 323 322 323 322 323
345 342 341 338 334 331 331 323 319 320 317 319 316 314 314 315 314 315 317 317 318 319 318 318 317 317 316 320 321 324 326 324 325 324 322 322 323 324 324 323 323 323 322
342 340 336 331 327 324 327 323 320 316 315 314 315 311 310 313 314 313 314 315 315 317 317 318 317 317 316 316 320 322 324 324 325 324 323 322 323 323 323 323 323 322 322
339 335 330 327 324 323 320 320 319 317 313 313 313 312 305 306 309 313 313 313 314 314 314 315 316 316 316 315 318 320 321 321 323 323 322 322 323 322 322 321 321 321 321
330 328 326 324 321 319 319 319 317 316 315 311 311 311 310 310 308 307 311 312 313 313 313 314 315 315 315 314 318 320 320 321 322 322 322 321 321 322 321 321 321 321 321
325 324 322 320 318 317 316 316 314 314 313 312 311 309 310 308 308 306 305 309 312 312 313 312 312 313 314 314 314 319 319 319 319 319 319 319 320 321 321 321 321 321 321
321 320 319 318 317 317 316 315 314 313 312 312 311 310 309 308 309 308 307 307 307 311 312 313 313 312 313 312 315 320 318 318 318 317 317 317 318 319 320 320 319 320 321
317 317 317 316 316 316 316 315 313 313 313 312 312 311 311 310 310 309 309 307 306 309 310 312 313 314 312 312 314 318 316 317 318 317 315 315 316 316 316 316 317 318 319
317 317 316 317 317 316 315 314 313 313 313 313 312 311 309 310 311 311 310 309 306 306 307 308 312 313 312 311 314 317 314 316 316 315 315 314 314 314 314 315 315 314 315
316 317 317 316 316 316 315 314 313 313 313 311 309 308 306 305 307 308 309 309 307 303 303 309 308 313 312 312 313 314 313 316 315 315 314 314 313 313 313 312 312 312 313
317 316 315 316 316 315 314 314 313 312 309 308 306 306 304 302 302 305 306 308 308 306 304 308 310 311 312 311 314 314 313 314 314 314 314 313 313 312 312 311 310 310 311
315 315 315 315 315 314 314 313 313 311 309 308 307 304 302 301 300 303 305 306 307 307 305 306 308 310 310 310 312 313 313 313 313 313 314 313 312 311 311 311 310 309 308
315 315 316 316 315 314 314 314 313 311 308 305 303 301 300 302 301 302 303 304 304 306 306 304 306 307 308 310 311 312 312 312 312 313 313 312 311 311 311 310 308 307 305
314 315 316 316 315 314 314 314 313 310 306 304 301 300 300 301 302 302 303 304 304 305 306 305 305 306 307 310 311 312 311 312 311 313 312 311 311 311 310 310 308 306 304
313 314 315 316 315 314 314 313 312 307 305 303 301 301 302 302 303 303 304 305 305 305 305 305 304 304 306 309 309 308 307 310 309 311 311 310 310 311 310 309 309 307 303
313 314 313 313 313 314 311 309 308 305 304 303 301 300 303 306 305 305 306 306 306 304 303 303 303 303 304 304 305 308 306 307 309 309 308 309 309 309 309 308 308 307 303
311 311 311 311 311 311 303 305 306 305 305 300 298 298 299 300 299 300 302 304 306 305 303 302 301 301 302 304 305 305 305 302 301 310 306 306 310 308 309 309 306 305 303
309 308 307 308 307 308 302 301 302 302 298 297 297 298 297 296 298 299 300 301 301 302 303 304 302 300 301 304 303 305 305 304 303 307 306 304 308 307 308 308 305 304 303
306 306 304 304 304 304 301 300 299 298 297 297 297 297 297 297 298 298 300 300 300 300 302 301 301 301 302 303 304 305 306 305 306 307 307 301 306 305 308 308 305 304 302
304 303 302 301 302 301 300 297 297 297 297 297 297 298 297 298 295 295 299 299 299 299 300 299 298 297 295 295 299 302 302 303 301 303 306 303 303 303 306 306 307 304 302
302 301 298 300 301 301 298 295 297 296 296 296 296 297 296 298 294 294 299 298 298 297 298 299 299 300 300 299 297 299 300 303 302 302 305 302 301 301 299 306 305 304 305
Wind_Speed
3 3 3 2 2 2 2 2 3 3 4 4 6 8 8 9 8 4 3 14 13 13 13 14 13 13 14 15 15 15 15 16 16 16 15 18 19 20 19 20 18 16 16
4 3 3 2 2 2 3 3 3 3 3 5 7 7 8 7 7 6 4 6 13 12 14 13 13 14 15 16 15 15 16 17 18 17 17 16 21 20 20 19 19 19 18
4 4 3 3 2 3 4 3 4 3 4 5 7 6 6 7 6 7 5 4 5 12 14 13 13 13 15 16 16 15 17 18 18 21 16 16 20 19 19 21 21 21 20
5 5 3 3 3 3 3 3 3 4 4 5 5 5 4 5 6 5 5 4 5 5 8 12 12 14 15 15 15 16 19 19 17 17 17 18 18 18 19 20 20 20 21
5 4 4 4 4 3 3 3 2 3 5 6 6 5 5 5 5 4 5 6 6 4 4 10 13 13 16 16 16 18 20 21 19 18 17 18 18 19 20 20 21 22 23
5 4 4 4 4 4 4 3 4 4 4 6 8 7 5 5 5 4 4 5 5 4 4 5 5 6 15 18 17 19 20 19 18 18 17 18 19 20 20 20 22 23 23
6 6 4 4 3 4 4 4 4 8 5 2 4 4 4 5 6 4 3 4 4 3 3 4 4 5 7 16 15 17 19 19 19 18 18 20 22 23 23 22 22 21 23
6 5 5 4 4 4 5 4 4 4 2 2 3 2 1 2 3 4 3 4 4 2 4 6 7 7 8 7 10 18 19 19 20 20 20 22 24 24 24 24 24 25 26
5 6 5 4 4 3 4 4 4 5 3 3 4 3 2 2 1 1 2 3 4 3 4 4 7 8 9 8 10 13 17 18 19 21 22 22 23 23 24 26 27 26 26
5 5 4 4 5 3 4 3 3 2 4 4 2 4 4 3 3 1 1 1 1 2 4 4 6 8 9 8 12 13 17 17 19 21 22 22 22 23 24 26 27 27 28
5 5 5 5 5 4 4 5 5 5 3 3 2 2 3 4 3 2 1 2 2 1 2 5 5 6 8 9 8 11 18 17 19 20 22 21 22 23 23 26 28 30 30
4 5 5 5 5 5 5 4 5 6 5 5 4 3 2 2 1 2 1 1 2 2 2 3 5 6 7 8 11 18 17 17 18 20 21 20 22 23 25 27 29 30 31
4 5 5 5 4 6 5 5 7 7 6 6 5 5 4 4 2 2 1 1 2 2 2 2 4 5 7 7 8 17 15 17 17 18 19 18 20 22 24 27 29 31 33
7 6 7 6 6 6 5 5 6 6 7 7 8 7 5 4 3 2 2 1 1 2 2 3 3 5 6 7 10 17 10 16 17 17 16 18 20 21 24 27 30 32 33
7 8 9 8 7 5 6 6 6 7 8 6 6 7 5 3 4 3 3 0 1 2 2 2 3 5 6 7 9 10 9 15 16 17 17 18 19 21 24 28 30 32 33
9 10 9 9 7 6 6 7 7 6 9 5 6 6 5 2 3 3 3 2 2 1 3 2 2 4 7 6 9 9 9 12 14 16 17 18 18 19 23 26 31 33 34
11 11 10 10 8 8 7 7 7 9 10 8 7 6 5 3 3 4 2 2 3 1 2 2 2 4 4 8 9 10 9 8 8 13 16 16 18 18 21 24 29 32 34
11 11 10 9 9 8 8 9 8 8 9 8 7 5 5 3 4 3 4 3 2 2 2 3 3 3 4 5 7 10 9 8 8 15 16 16 18 18 19 21 28 30 32
11 10 10 9 9 8 8 8 9 10 9 8 6 5 3 3 4 3 3 3 2 2 1 2 4 2 3 4 9 7 9 9 7 17 14 15 17 17 20 21 27 30 30
13 11 10 9 8 7 9 9 10 10 8 8 6 5 3 4 5 4 3 3 2 3 2 2 3 3 3 4 6 9 10 9 8 11 11 10 15 17 17 21 27 30 30
10 10 10 9 8 7 7 10 10 10 9 7 5 4 4 7 8 4 2 3 3 2 2 2 3 3 3 4 8 8 8 9 6 8 10 8 9 7 10 15 21 29 29
11 11 10 10 8 5 13 14 11 9 8 6 5 4 5 8 9 8 7 3 2 1 1 2 2 3 4 4 4 6 6 7 7 7 11 8 9 9 10 10 21 23 26
11 10 10 9 8 6 14 14 14 8 7 6 5 4 5 5 7 5 6 5 5 7 3 1 2 3 4 6 7 7 7 6 4 7 11 7 10 9 8 8 20 22 24
11 10 9 9 9 5 13 15 14 10 7 6 5 6 5 6 6 4 3 4 5 5 7 4 3 3 3 6 5 4 4 7 4 4 11 7 10 10 7 6 15 19 22
10 8 9 9 10 6 13 15 12 9 7 6 5 5 5 5 5 3 5 4 5 7 6 6 3 1 3 7 10 7 7 7 6 5 10 6 10 10 6 6 10 18 17
9 8 8 5 7 9 11 13 11 7 7 6 4 5 8 4 4 4 5 3 6 5 7 7 8 9 10 10 11 7 5 5 4 3 9 7 10 9 6 6 8 11 10
Wind_Direction
173 178 225 231 218 224 195 121 90 69 55 60 75 103 104 107 101 88 76 94 91 81 74 54 44 37 22 9 2 360 359 353 352 344 349 348 350 346 342 339 339 332 328
178 186 212 233 181 167 129 122 116 93 75 75 81 94 105 98 96 87 72 94 82 74 66 56 45 28 12 6 6 4 358 345 350 343 340 347 345 345 342 341 338 334 330
190 172 175 166 166 135 122 107 98 93 82 78 87 86 100 106 98 89 87 77 62 67 67 58 40 21 9 8 6 0 354 357 345 344 347 343 347 343 340 335 332 332 330
186 178 164 158 163 127 117 111 110 90 83 85 82 66 65 70 83 85 80 82 65 54 57 57 34 20 11 6 5 357 355 351 345 344 347 343 342 334 335 336 337 333 330
173 159 156 155 155 124 118 132 91 102 97 91 92 65 51 56 56 82 82 80 61 64 57 46 32 14 8 3 357 350 357 356 355 355 356 351 341 335 330 331 333 339 337
160 142 131 147 144 120 117 95 97 61 93 106 90 72 50 45 51 63 63 71 61 69 65 43 19 360 358 358 350 341 352 351 351 351 353 342 328 324 323 328 330 328 328
141 138 147 140 129 125 128 130 108 111 94 79 102 64 40 44 56 55 62 54 49 59 55 29 12 4 354 353 346 340 346 346 348 348 343 338 332 333 332 331 323 326 324
141 144 141 142 131 119 133 141 127 118 96 28 112 90 102 356 32 36 27 33 30 34 26 27 13 1 358 347 342 344 345 347 346 346 343 339 340 338 340 339 338 334 326
127 132 138 136 130 110 139 127 123 123 135 49 69 130 120 206 296 341 25 35 30 27 19 12 10 2 356 351 348 343 354 350 349 348 348 345 345 347 348 345 341 336 330
116 117 122 112 103 121 115 115 128 125 128 127 97 52 56 131 168 251 331 331 327 30 35 43 20 358 354 352 344 331 350 349 350 350 349 345 346 346 348 343 339 335 334
98 99 102 108 112 102 107 125 121 122 90 121 117 139 71 61 74 114 229 308 311 50 64 52 24 7 357 349 336 333 355 352 352 350 349 345 346 341 341 339 338 337 335
98 89 107 103 102 99 93 111 111 107 108 94 101 85 113 119 66 70 66 310 286 292 287 20 10 359 353 352 346 347 357 353 354 352 346 349 347 342 341 342 341 339 333
132 135 121 108 109 105 114 115 106 104 97 98 100 91 71 62 67 85 49 338 309 322 334 325 344 336 347 344 340 357 353 351 354 349 351 352 353 350 348 345 343 341 335
140 151 118 112 115 103 108 112 102 95 98 95 89 81 80 57 52 52 82 305 342 326 321 330 316 317 339 340 341 358 348 346 354 353 352 353 354 349 345 345 346 343 337
144 133 122 123 115 127 116 117 106 99 94 86 82 78 77 55 61 64 65 44 112 346 296 322 306 301 334 341 343 354 344 341 343 351 356 354 352 348 352 351 351 345 344
141 130 135 122 119 118 119 114 102 97 93 82 80 70 70 48 64 63 76 86 72 117 287 248 279 299 323 334 341 344 334 340 342 341 355 353 348 350 353 355 355 350 349
147 141 136 132 142 139 125 111 111 104 94 88 77 67 60 52 53 60 50 50 57 48 276 309 278 307 302 326 335 337 336 343 345 339 352 348 346 347 352 354 357 353 353
144 132 135 134 140 144 130 128 118 108 101 88 77 64 47 49 69 51 55 22 26 303 299 297 291 312 298 325 328 334 333 338 345 358 348 348 345 345 354 357 358 358 358
128 131 134 136 147 143 134 119 120 108 100 94 82 69 54 73 70 23 36 360 12 292 295 287 307 295 291 346 342 332 332 335 348 360 357 352 349 345 356 4 3 6 3
135 137 138 140 146 144 130 123 117 106 101 93 87 77 61 71 68 37 354 20 324 326 1 332 322 308 297 337 342 340 347 348 346 2 350 349 352 352 357 10 9 11 8
129 136 134 130 139 146 130 123 118 119 112 99 81 68 59 60 56 30 329 338 294 6 334 15 349 305 333 357 351 341 337 337 341 0 349 355 355 352 4 10 12 12 14
134 135 136 135 136 149 125 123 126 117 107 107 104 85 66 45 37 24 14 347 268 251 20 29 319 331 352 346 330 337 344 343 351 11 346 338 353 353 4 14 10 11 14
138 134 128 129 124 130 126 122 112 110 111 112 110 85 63 43 40 30 33 42 43 49 69 192 326 1 349 351 318 338 352 350 335 355 346 335 0 353 360 5 10 12 13
135 133 127 123 125 128 133 120 114 107 105 105 97 79 67 45 28 28 61 47 38 42 30 34 22 351 342 332 315 306 318 319 314 345 4 340 354 350 346 5 12 11 15
127 131 130 133 129 147 136 131 118 110 111 106 90 73 72 63 6 35 79 58 50 33 11 23 52 310 351 6 10 360 4 349 0 356 6 344 352 343 339 1 13 14 15
126 130 113 116 147 143 155 136 126 122 124 112 86 69 54 93 70 42 82 62 61 13 18 18 22 21 22 17 19 27 347 352 340 335 12 356 358 1 340 0 8 8 11